Wind_Speed
17 17 17 17 17 16 16 15 16 17 19 20 19 19 21 21 21 20 19 18 18 17 17 17 17 17 18 18 19 20 21 21 20 21 21 22 23 23 23 23 23 23 23 23 24 24 25 28 31 32 31 31 30 28 27 27 26 26 27 28 27 26 26
17 18 19 19 18 17 17 18 19 19 21 22 21 20 21 22 21 20 18 18 18 17 17 17 17 18 19 19 20 20 20 20 19 20 22 23 23 24 25 25 25 25 25 25 25 25 26 26 28 30 30 30 32 31 29 28 28 26 26 26 28 28 28
18 18 19 19 19 19 19 21 20 20 22 24 22 21 22 22 21 19 18 18 18 17 16 17 17 18 19 20 20 20 20 20 20 22 24 25 25 25 26 26 27 27 27 28 27 27 27 26 27 29 29 28 30 31 31 30 29 28 26 25 26 28 29
17 17 18 19 20 20 21 21 20 19 21 21 20 20 22 22 20 19 19 19 18 17 17 17 18 19 20 20 20 20 19 20 22 24 26 26 26 26 26 26 27 27 28 28 29 29 28 28 27 28 29 28 28 30 30 30 30 29 27 26 26 27 28
16 16 17 19 20 21 20 20 18 18 20 18 17 20 22 22 20 19 19 19 18 17 17 17 18 19 20 20 20 20 20 22 24 26 27 27 26 25 25 25 26 27 27 28 29 29 29 29 27 27 28 28 28 29 30 30 30 29 28 27 27 27 27
15 17 19 20 21 20 20 19 17 18 21 17 16 20 22 22 20 19 19 19 18 17 17 18 19 20 20 20 20 21 22 23 25 26 27 26 25 24 24 25 26 27 28 28 29 29 29 28 27 26 27 27 28 28 29 30 30 30 28 28 27 27 27
16 18 20 21 21 21 21 19 16 19 21 16 16 21 23 22 21 19 19 18 17 18 18 19 20 20 20 20 21 22 23 25 25 26 26 25 24 24 24 25 26 28 29 29 30 29 29 28 28 27 26 26 27 28 30 31 31 30 29 28 28 28 27
15 16 18 19 20 21 22 19 18 21 22 18 18 21 22 21 20 19 18 18 18 19 19 19 20 20 20 21 22 24 24 25 25 24 24 24 24 24 24 26 28 29 29 29 29 29 29 29 28 28 27 26 25 26 29 32 32 31 29 29 29 28 27
14 15 16 17 19 22 22 20 19 21 22 19 19 20 22 20 19 18 17 18 19 19 20 20 20 20 21 23 24 25 25 24 24 23 23 24 24 25 26 27 28 29 29 28 28 29 29 30 29 29 29 27 26 24 25 30 33 32 29 28 28 28 27
14 15 15 17 19 21 21 20 19 20 21 20 20 21 21 19 18 18 18 19 19 20 20 20 21 21 22 24 25 25 25 24 24 23 24 24 25 26 27 28 28 28 28 28 28 29 29 30 31 31 31 30 28 26 24 26 30 32 30 28 28 27 27
14 15 15 16 19 21 21 21 19 19 20 21 21 21 20 19 18 18 18 19 20 20 21 21 22 23 24 25 25 25 24 24 24 24 24 25 25 26 26 27 27 27 27 27 28 29 30 31 31 31 32 31 30 28 26 25 28 30 29 28 28 27 26
14 15 15 16 19 21 23 22 19 17 21 22 21 20 20 19 18 18 19 20 20 21 21 22 23 24 25 25 25 25 25 25 25 25 25 25 25 26 26 26 26 26 27 27 28 29 30 31 32 32 31 31 30 29 27 26 26 29 29 27 27 27 26
14 15 16 17 19 21 23 22 16 16 20 22 21 20 19 18 18 19 19 20 21 21 22 22 24 25 26 26 26 26 26 26 26 26 26 26 26 27 27 27 27 27 27 28 29 29 30 31 31 31 31 30 30 29 27 26 26 28 29 27 27 27 26
14 15 16 16 17 19 21 19 17 16 19 21 20 19 18 18 19 19 19 20 21 22 22 23 24 26 26 27 27 27 27 26 26 27 27 28 28 28 28 27 27 27 27 28 29 29 30 30 30 30 30 29 29 28 27 26 25 27 29 28 27 27 26
13 15 16 16 16 18 19 19 17 18 19 20 19 18 19 19 19 19 19 20 21 21 23 24 25 26 27 27 27 27 27 26 27 27 28 28 28 28 28 28 28 28 28 28 29 29 29 29 30 30 29 29 29 28 27 26 25 26 27 28 28 27 27
13 14 16 17 17 18 19 18 18 19 20 19 18 18 19 19 19 18 19 20 21 22 23 24 26 27 27 28 28 27 27 27 27 28 28 28 28 28 28 29 29 29 29 29 29 29 29 29 30 30 30 30 29 29 28 27 26 25 26 27 27 27 27
13 14 14 15 16 17 18 17 18 19 19 17 17 19 19 19 19 18 19 20 21 23 24 25 27 28 29 29 29 28 27 27 28 28 28 28 28 28 29 29 29 29 29 29 29 29 29 29 30 30 30 30 29 29 29 28 27 26 25 26 26 26 26
14 13 13 14 14 16 16 16 17 18 17 17 18 19 19 19 19 19 20 21 22 23 25 26 28 30 30 30 30 29 28 28 29 28 28 28 28 28 29 29 29 29 29 29 28 29 29 30 30 30 30 30 30 30 29 28 28 26 25 26 26 26 26
13 12 11 11 12 13 14 15 16 16 17 18 19 19 19 19 19 20 21 22 23 25 26 28 30 31 32 31 31 30 29 29 29 28 27 27 28 28 28 29 29 29 29 28 28 29 30 31 31 31 31 30 30 30 29 28 28 27 26 25 25 26 26
11 10 10 9 9 11 12 13 14 16 18 19 19 19 19 19 20 21 22 23 25 26 28 30 31 32 33 32 31 30 30 30 28 28 28 28 28 28 28 28 28 28 28 29 29 30 30 31 31 31 31 30 30 29 28 28 27 26 25 25 25 25 25
10 10 9 8 8 10 10 11 14 17 18 19 19 19 20 20 21 22 23 25 27 28 30 31 33 34 34 33 31 30 30 29 28 28 28 28 29 29 29 28 28 28 29 29 30 30 31 31 31 31 30 29 29 28 27 26 26 25 25 24 25 25 25
11 11 11 10 10 10 10 12 15 17 18 18 19 19 20 20 22 23 25 27 29 30 32 33 34 35 34 33 31 31 30 29 29 29 29 29 29 29 29 28 28 29 29 30 30 31 31 31 31 31 30 29 28 27 26 26 25 25 25 24 24 24 24
13 13 12 12 11 11 12 14 16 16 17 18 19 19 20 21 22 24 27 29 30 32 33 34 35 35 34 33 32 32 31 31 30 30 30 29 29 29 29 29 28 29 30 30 31 31 31 31 30 30 29 29 28 27 26 26 25 25 25 24 24 24 24
13 13 13 12 12 13 14 16 16 16 17 18 19 19 21 22 24 27 29 30 31 33 34 35 35 35 34 33 33 33 32 32 31 30 30 29 29 29 29 29 29 30 31 32 32 32 31 30 29 29 28 28 28 28 27 27 27 26 25 25 24 24 24
13 13 13 14 14 15 15 16 17 18 18 19 20 21 23 25 27 29 30 31 32 33 34 34 35 34 34 34 34 34 33 32 31 30 29 29 29 29 29 30 30 31 32 33 33 32 31 30 29 29 29 28 28 28 28 28 27 27 26 26 25 25 25
14 14 15 15 16 16 16 17 18 20 20 20 21 23 25 27 29 30 31 32 32 33 34 34 34 34 34 34 34 34 33 32 31 30 29 29 29 29 29 30 31 32 33 34 33 32 32 31 31 30 29 29 28 27 27 27 26 26 26 25 25 25 25
14 14 14 16 18 18 17 18 19 19 20 20 21 24 26 28 29 30 31 32 32 33 33 33 34 34 34 34 34 33 32 31 30 29 29 29 30 30 30 31 32 33 34 34 34 33 33 32 32 31 30 28 27 27 27 27 27 26 26 26 25 25 25
15 17 17 17 18 18 18 18 18 19 20 21 22 24 26 27 29 30 31 31 32 32 33 33 33 34 33 33 33 32 31 30 29 29 29 30 30 30 31 31 32 34 34 34 34 33 33 33 32 31 30 29 28 28 27 28 28 28 28 27 27 27 27
14 18 19 15 14 16 18 19 21 22 23 23 23 24 26 27 28 29 30 31 31 32 32 33 33 33 33 33 32 30 29 28 29 29 29 30 30 31 31 32 33 33 33 33 33 33 33 33 32 31 30 30 29 29 29 29 29 29 29 29 28 27 27
8 11 15 13 12 14 17 21 24 24 24 24 25 25 25 26 27 28 29 30 30 31 32 32 32 32 32 31 30 29 28 28 29 29 30 31 31 32 32 32 33 33 32 32 33 32 32 32 31 31 31 31 30 30 30 30 30 30 30 29 29 28 27
6 8 11 12 13 14 17 21 23 24 25 25 25 24 24 25 26 27 28 28 29 30 31 31 31 31 30 29 28 28 29 29 29 30 31 32 32 32 32 32 32 31 31 32 32 32 31 31 31 31 31 31 31 31 31 31 31 31 30 30 29 29 28
8 9 11 12 13 15 17 19 22 24 24 23 22 23 24 25 25 26 26 27 28 29 30 31 30 29 28 27 28 28 29 29 30 31 32 32 31 32 31 31 31 31 31 32 32 31 31 30 31 31 31 31 32 31 32 32 31 31 30 30 29 29 28
11 12 13 14 15 16 18 19 21 22 22 22 22 23 24 24 25 25 26 26 27 29 30 30 28 27 27 27 28 29 29 30 31 31 31 31 31 31 30 30 31 31 31 31 30 30 30 30 31 31 32 32 32 32 32 32 31 31 30 29 28 28 28
11 12 14 16 17 18 19 21 21 21 21 22 23 24 24 24 25 25 26 27 28 29 29 28 26 26 27 28 28 29 30 31 31 31 31 30 30 30 30 30 30 30 30 29 30 30 30 31 31 32 32 33 33 33 32 31 30 30 29 29 28 28 28
12 12 14 16 17 19 21 22 21 21 21 22 23 24 24 25 25 26 27 27 28 28 27 26 25 26 27 28 29 30 31 31 30 30 30 30 30 30 30 29 29 29 29 29 30 30 31 31 32 32 32 32 32 31 31 30 29 29 29 29 30 29 29
13 14 15 17 19 21 22 23 23 22 22 22 23 25 25 26 26 27 27 28 27 27 25 25 25 26 28 29 30 30 30 30 29 29 29 29 29 29 29 28 28 29 29 30 30 31 32 32 32 32 32 31 30 30 29 29 29 29 29 30 30 29 28
15 17 18 19 21 23 23 24 23 22 21 23 25 26 26 26 27 27 27 27 26 25 25 25 26 27 28 29 30 30 29 28 28 28 29 29 29 28 28 28 28 29 30 31 31 32 32 32 32 32 31 30 29 28 28 28 29 30 30 30 29 27 26
Wind_Direction
256 257 258 258 257 257 257 255 252 249 245 245 244 239 243 249 252 254 255 257 259 262 267 272 277 284 290 295 300 304 306 307 307 307 308 308 309 310 310 309 309 310 310 311 312 312 313 313 314 315 317 318 318 321 323 322 322 321 319 318 315 313 312
254 257 258 257 256 253 251 249 245 241 241 247 247 243 245 250 252 254 255 257 259 262 267 273 281 288 293 297 300 304 306 308 309 310 309 309 309 309 310 311 311 312 313 313 313 313 312 311 312 313 315 317 316 318 321 321 321 321 321 319 317 315 313
255 257 256 256 253 247 246 247 247 245 244 243 241 242 247 251 252 254 256 258 259 264 270 277 285 290 294 297 301 305 309 311 312 311 310 309 309 310 311 312 313 314 315 314 313 312 311 311 311 311 312 313 314 316 318 319 320 322 322 320 316 315 314
256 256 253 253 249 246 246 246 248 250 244 235 231 239 247 250 252 254 256 258 262 267 273 281 288 292 295 298 302 307 310 312 313 312 310 310 310 311 312 313 313 313 313 312 312 312 312 311 311 310 310 311 312 314 316 317 318 320 322 321 317 315 315
248 249 248 247 245 246 244 243 249 248 235 224 226 237 245 249 252 254 257 260 264 270 278 286 291 293 296 299 303 308 311 312 312 311 310 309 310 311 312 313 311 311 310 310 311 311 311 311 310 309 308 309 311 313 314 315 315 317 320 321 317 316 316
238 243 245 244 244 245 240 240 247 238 225 222 227 236 245 249 253 255 258 263 269 277 285 290 292 294 297 301 305 309 311 312 311 310 309 309 310 311 313 312 311 311 310 310 310 310 310 310 309 308 307 308 310 312 313 313 313 315 319 320 317 316 316
234 241 246 247 244 241 237 235 233 228 229 230 226 234 246 250 253 257 261 268 276 283 288 291 292 294 298 302 306 308 310 311 310 310 310 310 311 312 313 312 311 311 311 311 310 310 310 310 309 308 308 309 311 312 313 313 313 315 318 318 317 316 317
231 241 249 249 242 236 234 228 222 228 237 236 226 235 246 250 255 260 266 275 281 285 288 290 292 294 299 303 305 308 309 310 311 311 311 311 312 312 312 311 310 310 310 310 310 310 310 310 310 310 309 309 311 312 313 313 312 313 316 316 316 316 316
232 243 249 249 239 231 229 224 219 228 238 236 229 237 245 251 258 264 272 279 282 286 289 290 292 295 300 303 305 307 308 309 310 310 310 311 311 311 311 310 309 309 309 309 309 310 310 310 311 311 311 311 311 311 313 312 311 312 314 315 315 316 316
233 239 243 244 234 223 222 221 217 223 236 239 235 238 246 253 260 266 273 278 281 285 287 289 292 295 299 302 304 306 307 307 307 306 308 310 310 310 309 308 308 308 308 308 308 308 309 310 311 312 312 312 312 312 312 310 309 309 313 314 314 315 315
232 233 235 234 224 217 217 214 210 221 238 241 235 238 247 254 261 268 273 278 281 283 285 288 291 295 299 302 303 305 305 304 303 303 306 308 309 309 308 307 307 307 307 307 308 309 310 311 311 312 312 312 313 314 313 311 308 307 311 313 313 314 315
236 231 225 218 212 212 208 200 203 223 234 235 233 238 248 255 263 270 274 278 280 282 284 288 291 296 299 301 302 304 304 304 302 303 305 308 309 309 309 309 309 309 310 310 310 311 310 310 311 311 311 312 314 315 315 313 310 307 309 313 313 313 314
240 229 218 212 208 206 200 199 214 229 228 229 233 239 248 257 265 271 275 279 280 282 285 288 292 296 298 299 301 303 304 304 303 304 307 309 311 312 313 313 313 312 312 312 312 311 310 310 310 311 312 313 314 315 315 314 312 309 309 311 313 313 312
234 217 210 209 205 202 205 218 237 237 228 230 234 241 252 260 266 271 276 279 280 281 284 287 291 295 297 299 301 303 304 303 304 306 309 312 314 316 316 316 315 314 313 313 312 311 311 311 312 313 314 314 314 315 315 315 314 312 311 312 313 313 312
220 207 204 206 206 210 222 235 244 238 232 233 237 246 255 260 266 273 276 278 278 280 283 287 292 294 296 299 301 302 304 304 305 308 311 314 317 318 318 318 317 316 314 314 313 313 314 314 314 315 315 315 315 315 315 315 315 314 312 312 312 312 312
214 211 210 214 218 225 233 240 240 236 233 234 240 248 255 261 268 273 275 275 276 279 284 289 293 295 296 299 301 303 304 305 307 311 314 316 318 319 318 318 318 317 316 316 316 316 317 316 316 316 316 316 316 316 316 315 315 314 312 312 312 312 312
217 221 223 227 232 235 237 237 234 233 234 238 244 250 257 264 269 271 273 274 276 281 287 291 293 295 298 300 302 303 304 307 310 314 316 317 318 318 318 317 317 317 317 318 318 318 318 318 317 317 317 317 316 316 316 315 314 314 312 310 310 311 312
220 225 231 235 236 235 232 230 229 232 237 243 248 254 261 265 267 269 270 273 279 285 289 291 294 297 299 301 302 303 306 310 313 315 316 317 317 317 317 317 318 319 319 319 319 319 319 318 318 317 317 316 316 315 315 314 314 313 312 311 311 311 312
217 220 225 228 228 226 224 224 227 232 240 246 251 257 261 263 264 265 269 275 282 287 289 292 294 297 299 301 302 305 308 311 313 314 315 316 316 317 318 319 319 320 319 319 319 319 319 318 318 317 316 315 315 314 314 314 314 313 313 313 312 312 312
209 211 216 219 221 224 225 226 229 233 240 246 251 255 257 259 262 265 272 279 284 287 290 292 294 296 299 301 304 307 310 311 313 314 314 315 317 319 320 320 319 318 318 318 318 318 318 318 317 317 316 315 314 314 313 313 314 314 314 314 313 312 312
210 215 220 223 227 234 239 237 234 237 242 246 250 253 256 259 263 269 276 281 285 287 289 291 293 296 299 302 305 308 310 312 313 314 315 317 319 320 319 318 317 316 316 317 317 317 317 317 317 316 315 314 313 313 313 313 314 315 315 314 313 312 311
220 224 230 236 240 245 248 244 242 244 246 249 251 255 258 262 267 273 278 282 285 286 288 291 294 297 300 303 306 309 311 313 314 315 316 317 318 318 316 315 315 315 315 316 317 317 317 316 316 315 314 313 313 314 314 315 316 316 315 315 313 312 311
224 231 236 241 246 250 248 246 248 250 252 254 255 258 261 265 270 274 278 281 283 286 288 292 295 297 300 304 308 310 312 313 314 314 315 316 316 315 313 313 313 314 315 316 317 317 317 316 316 315 314 314 314 315 315 316 316 316 316 315 314 313 312
227 234 240 246 254 257 253 251 252 253 254 255 258 260 262 265 269 272 276 280 283 287 290 293 295 298 302 306 309 310 311 312 312 313 313 313 313 312 311 311 313 314 316 317 318 318 318 317 316 315 315 314 315 315 316 316 316 316 315 314 313 312 311
232 238 244 251 256 259 259 259 257 254 254 255 257 259 261 263 267 271 276 280 284 287 290 293 296 299 303 306 308 309 310 310 311 311 311 311 310 310 310 312 314 316 317 318 318 318 317 317 316 315 315 315 315 315 316 316 316 315 315 314 313 312 310
239 244 248 253 256 258 259 261 259 255 253 254 255 257 259 263 267 272 277 281 284 287 291 294 298 301 303 305 307 308 308 309 309 309 309 309 309 310 311 313 315 317 317 317 317 316 316 316 316 315 315 315 315 315 315 314 314 314 313 313 312 311 310
244 246 250 254 256 257 257 258 256 251 247 249 252 256 261 265 270 274 278 282 286 289 293 296 298 300 302 304 305 306 307 308 308 309 309 309 309 310 312 314 316 316 316 315 315 315 315 315 315 314 314 314 314 314 313 313 312 312 311 311 310 309 308
256 252 252 257 258 255 252 249 243 238 241 249 257 262 266 268 271 275 279 283 287 291 294 296 297 299 300 302 303 305 306 307 308 309 309 309 309 311 312 314 315 315 314 314 314 313 313 313 313 313 313 313 312 312 311 311 311 310 309 309 308 307 306
262 252 244 246 250 245 238 232 228 233 245 256 265 268 269 269 271 274 278 282 287 291 294 295 296 298 299 301 303 305 306 308 308 308 308 309 310 311 312 314 313 312 312 312 312 312 312 311 311 311 311 311 311 311 312 312 311 311 311 310 310 308 307
248 233 221 221 229 231 228 227 231 240 252 261 267 269 268 269 271 274 278 283 287 291 292 294 295 297 300 302 304 306 307 308 308 308 308 309 310 311 312 312 312 311 311 312 311 311 310 310 310 310 311 311 312 313 313 314 314 313 313 312 311 310 308
209 209 211 217 224 227 229 234 240 248 256 261 265 267 268 270 273 276 280 284 286 289 290 292 295 298 301 304 306 307 308 308 308 308 308 309 310 311 312 311 310 311 311 311 310 310 310 310 311 312 313 313 314 314 315 315 315 314 313 312 312 311 310
206 214 222 225 226 229 234 239 245 250 255 259 263 266 268 272 275 278 281 283 285 287 290 292 296 300 303 305 306 307 308 308 308 308 308 308 309 310 310 310 311 311 311 311 311 311 312 313 313 314 314 314 315 315 315 314 314 314 314 313 313 312 312
215 220 226 229 231 235 239 241 244 249 254 259 263 267 270 273 276 279 281 283 286 288 290 293 298 301 303 304 306 307 307 307 307 307 308 309 310 310 310 311 312 312 312 312 312 313 314 314 314 315 315 314 314 314 314 314 314 314 314 314 314 313 312
228 226 230 234 236 239 241 244 248 254 259 263 267 269 273 275 278 281 283 285 286 288 292 297 300 301 302 304 306 306 306 306 307 307 308 309 309 310 311 311 312 312 312 313 313 314 314 315 315 315 314 314 313 313 313 313 314 314 314 313 313 312 310
240 235 235 237 238 242 246 251 258 263 267 270 272 274 276 278 280 282 284 285 287 291 296 298 299 301 303 304 305 306 306 306 306 307 308 308 309 310 310 311 312 312 312 313 314 314 315 315 315 314 314 313 313 313 314 314 314 314 313 313 312 310 309
243 239 237 238 242 247 253 259 265 269 271 273 274 276 277 279 280 282 283 285 289 294 297 297 299 302 303 304 304 305 305 305 305 306 307 308 308 309 310 311 312 312 313 314 314 315 315 315 314 314 314 314 315 315 315 315 314 314 313 313 311 310 308
238 238 239 242 247 252 257 263 267 270 271 271 272 274 276 278 279 280 282 287 291 294 295 297 299 301 302 303 303 303 303 303 304 305 306 307 308 309 310 311 312 313 314 314 315 315 315 314 314 314 315 316 316 316 316 315 315 315 314 313 311 310 308
Height
5807 5809 5810 5812 5813 5814 5814 5814 5815 5816 5817 5819 5819 5819 5820 5821 5821 5821 5821 5821 5820 5820 5820 5820 5820 5820 5820 5820 5819 5818 5817 5816 5814 5813 5811 5810 5808 5806 5805 5804 5803 5801 5800 5799 5798 5797 5796 5791 5787 5785 5784 5783 5782 5782 5781 5779 5776 5774 5771 5768 5766 5765 5763
5805 5807 5808 5810 5811 5811 5811 5811 5812 5813 5815 5817 5817 5818 5819 5820 5820 5819 5819 5819 5819 5818 5818 5818 5818 5818 5818 5818 5817 5816 5815 5813 5812 5811 5809 5808 5806 5804 5802 5800 5799 5798 5796 5796 5795 5794 5793 5791 5787 5784 5782 5780 5778 5777 5777 5775 5773 5772 5770 5767 5764 5761 5759
5803 5804 5806 5807 5808 5808 5809 5809 5810 5812 5813 5814 5815 5817 5818 5818 5818 5818 5817 5817 5817 5816 5816 5816 5816 5816 5816 5815 5815 5813 5812 5810 5809 5808 5806 5805 5803 5801 5799 5797 5796 5794 5793 5792 5791 5790 5789 5788 5787 5784 5781 5780 5776 5774 5773 5772 5770 5768 5767 5765 5762 5759 5756
5800 5802 5803 5804 5804 5805 5806 5806 5808 5810 5811 5811 5813 5815 5816 5816 5816 5816 5815 5815 5815 5814 5814 5814 5814 5814 5814 5813 5812 5811 5809 5808 5806 5805 5804 5802 5800 5798 5797 5795 5794 5792 5791 5789 5787 5786 5786 5785 5784 5782 5779 5778 5775 5772 5770 5768 5766 5765 5764 5762 5760 5757 5754
5798 5799 5800 5801 5801 5802 5803 5804 5807 5809 5809 5809 5811 5813 5814 5814 5814 5814 5814 5813 5813 5812 5812 5812 5812 5812 5812 5811 5810 5809 5807 5806 5804 5803 5801 5799 5798 5796 5794 5793 5792 5790 5789 5787 5785 5784 5783 5782 5781 5779 5777 5775 5773 5771 5768 5766 5764 5762 5761 5759 5757 5754 5752
5795 5796 5796 5797 5798 5799 5801 5802 5805 5806 5807 5807 5809 5811 5812 5812 5812 5812 5812 5811 5811 5810 5810 5810 5810 5810 5810 5809 5808 5806 5805 5803 5802 5800 5799 5797 5796 5794 5792 5791 5789 5788 5786 5785 5783 5781 5780 5779 5778 5777 5775 5773 5771 5768 5766 5763 5761 5759 5758 5756 5753 5751 5749
5792 5793 5793 5795 5796 5797 5798 5800 5802 5804 5805 5805 5806 5808 5810 5810 5810 5810 5810 5809 5809 5809 5808 5808 5808 5808 5808 5806 5805 5804 5802 5801 5799 5798 5796 5795 5793 5792 5790 5788 5787 5785 5784 5782 5780 5778 5777 5776 5774 5773 5772 5770 5768 5766 5763 5760 5758 5757 5755 5753 5750 5748 5746
5790 5790 5791 5792 5793 5794 5796 5798 5800 5802 5804 5804 5805 5806 5807 5808 5808 5808 5808 5808 5808 5807 5807 5807 5807 5806 5805 5804 5803 5802 5800 5799 5797 5796 5794 5793 5791 5789 5788 5786 5785 5783 5781 5779 5777 5775 5774 5772 5771 5770 5769 5768 5766 5764 5760 5757 5754 5754 5752 5750 5747 5745 5743
5787 5788 5788 5789 5790 5792 5794 5797 5799 5800 5802 5803 5803 5804 5805 5806 5806 5806 5806 5806 5806 5806 5806 5805 5805 5804 5803 5802 5801 5799 5798 5796 5795 5793 5792 5791 5789 5787 5786 5784 5782 5781 5779 5777 5775 5773 5771 5769 5768 5766 5765 5764 5763 5762 5760 5755 5751 5749 5749 5747 5744 5742 5740
5785 5785 5786 5786 5787 5789 5792 5795 5796 5798 5800 5801 5801 5802 5803 5804 5804 5804 5805 5805 5805 5804 5804 5803 5803 5802 5801 5800 5799 5797 5795 5794 5793 5791 5790 5789 5787 5785 5783 5782 5780 5778 5776 5774 5772 5770 5768 5766 5764 5763 5761 5760 5759 5758 5757 5754 5749 5746 5745 5744 5742 5739 5737
5783 5783 5784 5784 5785 5787 5790 5792 5794 5796 5798 5799 5799 5800 5801 5802 5802 5803 5803 5803 5803 5803 5802 5801 5800 5800 5799 5798 5796 5795 5793 5792 5790 5789 5788 5786 5784 5783 5781 5779 5778 5776 5773 5771 5769 5767 5765 5763 5761 5759 5758 5756 5755 5754 5753 5752 5748 5744 5742 5741 5739 5737 5735
5781 5781 5782 5782 5784 5785 5787 5789 5792 5794 5795 5796 5797 5799 5800 5801 5801 5801 5801 5801 5801 5801 5800 5799 5798 5798 5796 5795 5794 5792 5791 5789 5788 5787 5785 5784 5782 5780 5778 5776 5775 5773 5770 5768 5766 5764 5762 5760 5758 5756 5754 5753 5751 5750 5749 5748 5745 5742 5740 5738 5736 5734 5732
5779 5780 5781 5781 5782 5784 5786 5788 5790 5792 5793 5794 5796 5797 5798 5799 5800 5799 5799 5799 5799 5798 5798 5797 5796 5795 5794 5793 5791 5789 5788 5786 5785 5784 5782 5781 5779 5777 5775 5773 5772 5770 5767 5765 5763 5761 5759 5757 5755 5753 5751 5750 5748 5747 5745 5744 5742 5739 5736 5736 5734 5731 5730
5778 5778 5779 5780 5782 5784 5786 5788 5789 5790 5791 5793 5794 5796 5797 5797 5797 5797 5797 5797 5797 5796 5796 5795 5794 5793 5791 5790 5788 5787 5785 5784 5782 5781 5779 5778 5776 5774 5772 5770 5769 5767 5765 5762 5760 5758 5756 5754 5752 5750 5748 5747 5745 5744 5742 5741 5739 5736 5733 5732 5730 5729 5727
5776 5777 5778 5780 5781 5783 5785 5786 5787 5788 5790 5791 5793 5794 5795 5795 5795 5795 5795 5795 5794 5794 5794 5793 5792 5790 5789 5787 5785 5784 5782 5781 5779 5778 5776 5775 5773 5771 5769 5767 5765 5763 5761 5759 5757 5755 5753 5751 5749 5747 5745 5744 5742 5741 5739 5738 5736 5734 5731 5728 5727 5725 5723
5775 5776 5777 5779 5780 5782 5783 5784 5785 5786 5788 5790 5791 5793 5793 5793 5793 5793 5793 5792 5792 5792 5791 5790 5789 5788 5786 5784 5782 5781 5780 5778 5777 5775 5774 5772 5770 5768 5766 5764 5762 5760 5758 5756 5754 5752 5750 5748 5746 5744 5742 5740 5739 5737 5736 5734 5733 5731 5729 5726 5724 5722 5720
5774 5775 5777 5778 5779 5780 5781 5781 5783 5785 5786 5788 5790 5790 5791 5791 5791 5791 5790 5790 5790 5789 5789 5787 5786 5784 5782 5781 5780 5778 5777 5776 5774 5773 5771 5769 5767 5765 5763 5761 5759 5757 5755 5753 5751 5749 5747 5745 5743 5741 5739 5737 5736 5734 5733 5731 5730 5728 5726 5724 5721 5719 5717
5772 5774 5775 5777 5778 5778 5779 5780 5781 5783 5785 5786 5787 5788 5788 5789 5788 5788 5788 5787 5787 5786 5785 5784 5782 5781 5779 5778 5777 5776 5775 5773 5772 5770 5768 5766 5764 5762 5760 5758 5756 5754 5752 5750 5748 5746 5744 5742 5740 5738 5736 5734 5733 5731 5730 5728 5727 5725 5723 5721 5718 5717 5715
5771 5773 5774 5775 5776 5777 5777 5778 5780 5782 5783 5784 5785 5785 5786 5786 5786 5785 5785 5785 5784 5783 5782 5781 5779 5778 5777 5776 5774 5773 5772 5770 5769 5767 5765 5764 5762 5759 5757 5755 5753 5751 5749 5747 5745 5743 5741 5739 5737 5735 5733 5732 5730 5728 5727 5725 5723 5722 5720 5718 5716 5714 5712
5770 5771 5772 5774 5774 5775 5776 5777 5778 5780 5781 5781 5782 5783 5783 5783 5783 5783 5782 5782 5781 5780 5779 5778 5776 5775 5774 5773 5772 5770 5769 5768 5766 5764 5763 5761 5759 5756 5754 5752 5750 5748 5746 5745 5743 5741 5739 5737 5735 5733 5731 5729 5727 5725 5724 5722 5720 5719 5717 5715 5713 5711 5709
5769 5770 5770 5772 5773 5774 5775 5776 5777 5777 5778 5779 5780 5780 5780 5780 5780 5780 5779 5779 5778 5777 5776 5775 5773 5773 5772 5771 5769 5768 5766 5765 5763 5761 5759 5757 5755 5753 5751 5750 5748 5746 5744 5742 5740 5738 5736 5734 5732 5730 5728 5726 5724 5723 5721 5719 5717 5716 5714 5712 5710 5708 5706
5767 5768 5769 5770 5771 5772 5773 5774 5775 5775 5776 5777 5777 5777 5778 5778 5777 5777 5777 5776 5775 5774 5773 5772 5771 5770 5769 5768 5766 5765 5763 5762 5760 5758 5756 5754 5752 5750 5749 5747 5745 5743 5741 5739 5737 5735 5734 5732 5729 5727 5725 5723 5722 5720 5718 5716 5714 5712 5711 5709 5707 5705 5704
5766 5767 5768 5769 5770 5771 5772 5772 5772 5773 5774 5774 5775 5775 5775 5775 5775 5774 5774 5773 5772 5771 5770 5769 5768 5767 5766 5764 5763 5761 5760 5758 5757 5755 5753 5751 5749 5748 5746 5744 5743 5741 5739 5737 5735 5733 5731 5729 5727 5725 5723 5721 5719 5717 5715 5713 5711 5710 5708 5706 5704 5703 5701
5764 5765 5766 5767 5768 5769 5769 5770 5770 5771 5772 5772 5772 5772 5772 5772 5772 5771 5770 5770 5769 5768 5767 5766 5765 5764 5762 5761 5760 5758 5757 5755 5753 5752 5750 5748 5747 5745 5743 5742 5740 5738 5736 5734 5732 5730 5728 5726 5724 5722 5720 5718 5716 5714 5712 5710 5708 5707 5705 5703 5702 5700 5698
5762 5763 5764 5765 5766 5766 5767 5768 5769 5769 5769 5769 5769 5769 5769 5769 5768 5768 5767 5767 5766 5765 5764 5763 5762 5760 5759 5758 5757 5755 5754 5752 5750 5748 5747 5745 5744 5743 5741 5739 5737 5735 5733 5731 5729 5727 5725 5723 5722 5720 5718 5716 5713 5711 5709 5707 5705 5704 5702 5700 5698 5697 5695
5760 5761 5762 5763 5763 5764 5765 5766 5766 5766 5766 5766 5766 5766 5766 5765 5765 5765 5764 5763 5763 5762 5761 5760 5759 5757 5756 5755 5754 5752 5751 5749 5747 5745 5744 5743 5741 5740 5738 5736 5733 5731 5730 5728 5727 5725 5723 5721 5719 5717 5715 5713 5711 5709 5707 5705 5703 5701 5699 5697 5696 5694 5692
5758 5759 5760 5760 5761 5761 5762 5763 5763 5763 5763 5763 5763 5763 5763 5762 5762 5762 5761 5760 5760 5759 5758 5757 5755 5754 5753 5752 5750 5749 5747 5745 5744 5742 5741 5740 5738 5737 5735 5733 5731 5728 5727 5725 5724 5722 5720 5718 5716 5714 5712 5710 5708 5706 5704 5702 5700 5698 5696 5695 5693 5691 5689
5755 5756 5757 5757 5758 5759 5759 5760 5760 5760 5760 5760 5760 5760 5760 5760 5759 5759 5758 5757 5756 5755 5754 5753 5752 5751 5750 5749 5747 5746 5744 5742 5741 5739 5738 5737 5735 5733 5732 5730 5728 5726 5724 5722 5721 5719 5717 5715 5713 5711 5709 5707 5705 5703 5701 5699 5697 5695 5693 5691 5689 5688 5686
5752 5752 5753 5754 5755 5755 5756 5756 5756 5757 5757 5757 5757 5757 5757 5756 5756 5755 5755 5754 5753 5752 5751 5750 5749 5748 5747 5746 5744 5743 5741 5740 5738 5737 5735 5733 5732 5730 5728 5726 5725 5723 5721 5719 5718 5716 5714 5712 5710 5708 5706 5704 5702 5700 5698 5696 5694 5692 5689 5688 5686 5684 5682
5749 5749 5750 5752 5752 5753 5753 5753 5753 5754 5754 5754 5754 5753 5753 5753 5752 5752 5751 5751 5750 5749 5748 5747 5746 5745 5744 5743 5741 5740 5738 5737 5735 5733 5732 5730 5728 5727 5725 5723 5722 5720 5718 5717 5715 5713 5711 5709 5707 5705 5703 5701 5699 5697 5694 5692 5690 5688 5686 5684 5682 5680 5679
5748 5748 5748 5749 5749 5750 5750 5751 5751 5751 5751 5751 5750 5750 5750 5750 5749 5749 5748 5748 5747 5746 5745 5744 5743 5742 5741 5740 5738 5737 5735 5734 5732 5730 5729 5727 5725 5724 5722 5720 5719 5717 5715 5714 5712 5710 5708 5706 5704 5702 5700 5698 5696 5693 5691 5689 5686 5684 5682 5680 5678 5676 5674
5746 5746 5746 5747 5747 5747 5748 5748 5748 5748 5747 5748 5748 5747 5747 5746 5746 5746 5745 5745 5744 5743 5743 5742 5740 5739 5738 5737 5735 5734 5732 5730 5729 5727 5726 5724 5723 5721 5719 5718 5716 5714 5713 5711 5709 5707 5705 5703 5701 5699 5697 5695 5693 5690 5688 5685 5683 5681 5678 5676 5674 5672 5671
5743 5743 5744 5744 5744 5744 5745 5745 5745 5744 5744 5745 5745 5744 5744 5743 5743 5743 5742 5742 5741 5740 5739 5738 5737 5736 5735 5734 5732 5731 5729 5728 5726 5724 5723 5721 5720 5718 5717 5715 5713 5711 5710 5708 5706 5704 5702 5700 5698 5696 5694 5692 5689 5687 5684 5682 5680 5677 5675 5673 5671 5669 5667
5740 5740 5741 5741 5741 5742 5742 5742 5742 5742 5742 5742 5741 5741 5740 5740 5740 5739 5739 5738 5738 5737 5736 5735 5734 5733 5732 5730 5729 5728 5726 5725 5723 5722 5720 5719 5717 5716 5714 5712 5710 5709 5707 5705 5703 5701 5699 5697 5695 5693 5690 5688 5686 5683 5681 5679 5677 5674 5672 5670 5668 5666 5664
5737 5737 5738 5738 5738 5739 5738 5738 5739 5739 5739 5738 5738 5737 5737 5737 5736 5736 5735 5735 5734 5734 5733 5732 5731 5730 5729 5727 5726 5725 5724 5722 5721 5719 5718 5716 5715 5713 5712 5710 5708 5706 5704 5702 5700 5698 5696 5694 5692 5690 5687 5685 5683 5680 5678 5676 5673 5671 5669 5667 5665 5663 5661
5734 5735 5735 5735 5735 5735 5735 5735 5736 5736 5736 5735 5735 5734 5734 5733 5733 5732 5732 5731 5731 5731 5730 5729 5727 5727 5726 5725 5724 5722 5721 5720 5718 5717 5715 5714 5712 5710 5709 5707 5705 5703 5701 5699 5697 5695 5693 5691 5689 5686 5684 5682 5679 5677 5675 5672 5670 5668 5666 5664 5661 5659 5657
5731 5732 5732 5732 5732 5732 5732 5732 5733 5733 5733 5732 5732 5731 5730 5730 5729 5729 5729 5728 5728 5727 5726 5725 5724 5724 5723 5722 5721 5720 5719 5717 5716 5714 5713 5711 5709 5708 5706 5704 5702 5700 5698 5696 5694 5692 5690 5688 5685 5683 5681 5678 5676 5674 5672 5669 5667 5665 5663 5660 5658 5656 5654